User: anonymous   Login
Location: Unspecified
(0.0000°N, 0.0000°E)
Time: 17:06:16
(UTC+02:00)
Language:

ARIANE 5 R/B - Orbit

View from above orbital plane
View from above orbital plane
View from above satellite
View from above satellite

Ground track
Ground track

The orbit data is extracted from the following two-line orbital elements,

1 28886U 05041C   16205.20926693 -.00000147  00000-0 -36609-3 0  9994
2 28886   7.8226 125.6692 7181495 215.0930 352.9374  2.24329986 88346
Epoch (UTC): 23 July 2016 05:01:20
Eccentricity: 0.7181495
inclination: 7.8226°
perigee height: 569 km
apogee height: 35973 km
right ascension of ascending node: 125.6692°
argument of perigee: 215.0930°
revolutions per day: 2.24329986
mean anomaly at epoch: 352.9374°
orbit number at epoch: 8834

The dashed part of the orbit path shows where the satellite is in the earth's shadow,  

DLR